M I D A S
Marine Information and Data Acquisition System
Tripno 2186 of the Zeeleeuw from 2011-09-20 07:02:04 to 2011-09-20 14:33:28
Back to CruiseResearch ActivitiesStationsMapUnderway DataData graphs

EquipmentUnitsComments
TimeDGPSUTC
LatitudeDGPSDM.mWGS84
LongitudeDGPSDM.mWGS84
SpeedMeteo Stationm/sRelative wind speed
DirectionMeteo StationdegRelative wind direction
TemperatureMeteo Stationdeg CelciusAir temperature
PressureMeteo StationPaAtmospheric pressure
HumidityMeteo Station%Relative humidity
Missing or incorrect values are displayed as -999
Metereological data collected by the RV Zeeleeuw from 2011-09-20 07:08:50 to 2011-09-20 15:36:53
Time Latitude Longitude Speed Direction Temperature Pressure Humidity
2011-09-20 07:09 51°13.656 2°55.938 4.4 35 15.2 101990 42
2011-09-20 07:10 51°13.681 2°55.83 2.6 41 15.2 101980 43
2011-09-20 07:11 51°13.693 2°55.741 2 30 15.2 101980 43
2011-09-20 07:12 51°13.701 2°55.738 0.3 52 15.3 101990 44
2011-09-20 07:13 51°13.738 2°55.729 4.2 307 15.3 101990 40
2011-09-20 07:14 51°13.839 2°55.634 2.5 310 15.4 101990 42
2011-09-20 07:15 51°13.983 2°55.526 4.7 303 15.4 101990 42
2011-09-20 07:16 51°14.141 2°55.406 4 302 15.4 101990 43
2011-09-20 07:17 51°14.308 2°55.265 5.7 310 15.4 101990 42
2011-09-20 07:18 51°14.479 2°55.108 5.1 308 15.5 101990 42
2011-09-20 07:19 51°14.651 2°54.935 6.6 304 15.5 101990 43
2011-09-20 07:20 51°14.822 2°54.742 8 308 15.6 101980 43
2011-09-20 07:21 51°14.989 2°54.545 7.5 306 15.6 101990 41
2011-09-20 07:22 51°15.173 2°54.397 7.5 305 15.6 101990 42
2011-09-20 07:23 51°15.372 2°54.337 3.2 62 15.7 102000 43
2011-09-20 07:24 51°15.578 2°54.402 0.3 307 15.7 101990 43
2011-09-20 07:25 51°15.778 2°54.505 -999 306 15.7 101990 42
2011-09-20 07:26 51°15.978 2°54.581 4.3 310 15.8 101990 44
2011-09-20 07:27 51°16.179 2°54.524 5.7 303 15.8 101980 42
2011-09-20 07:28 51°16.31 2°54.46 7.7 301 15.8 101990 43
2011-09-20 07:29 51°16.345 2°54.429 9.1 303 15.8 101990 42
2011-09-20 07:30 51°16.358 2°54.44 6.3 308 15.8 101980 42
2011-09-20 07:31 51°16.371 2°54.456 7.1 306 15.8 102000 42
2011-09-20 07:32 51°16.385 2°54.471 2.2 56 15.8 101990 43
2011-09-20 07:33 51°16.398 2°54.486 6.9 306 15.8 102000 42
2011-09-20 07:34 51°16.412 2°54.501 6.2 304 15.8 102000 42
2011-09-20 07:35 51°16.426 2°54.516 5.6 304 15.8 102000 42
2011-09-20 07:36 51°16.451 2°54.511 8.9 309 15.8 102000 42
2011-09-20 07:37 51°16.526 2°54.377 7.9 308 15.8 101980 41
2011-09-20 07:38 51°16.632 2°54.138 10.8 305 15.8 101970 42
2011-09-20 07:39 51°16.734 2°53.86 11.9 308 15.8 101960 42
2011-09-20 07:40 51°16.839 2°53.585 12.8 308 15.8 101980 42
2011-09-20 07:41 51°16.948 2°53.313 11.6 303 15.8 101970 42
2011-09-20 07:42 51°17.05 2°53.038 11.7 303 15.8 101960 43
2011-09-20 07:43 51°17.153 2°52.758 9.2 306 15.8 101960 42
2011-09-20 07:44 51°17.262 2°52.483 10.4 303 15.8 101970 41
2011-09-20 07:45 51°17.39 2°52.228 8.9 310 15.9 101980 41
2011-09-20 07:46 51°17.538 2°52.002 9 302 15.9 101980 42
2011-09-20 07:47 51°17.692 2°51.781 10.6 302 15.9 101980 42
2011-09-20 07:48 51°17.844 2°51.561 10 304 15.9 101990 41
2011-09-20 07:49 51°18.009 2°51.365 8.1 306 15.9 101990 41
2011-09-20 07:50 51°18.182 2°51.182 9.8 306 15.9 102010 42
2011-09-20 07:51 51°18.332 2°51.021 10.1 310 15.9 102000 42
2011-09-20 07:52 51°18.435 2°51.005 5.3 54 15.9 102000 41
2011-09-20 07:53 51°18.5 2°51.018 6.5 57 15.9 102000 41
2011-09-20 07:54 51°18.512 2°51.026 7.6 50 15.8 102000 42
2011-09-20 07:55 51°18.523 2°51.039 9.1 57 15.8 101990 41
2011-09-20 07:56 51°18.542 2°51.053 8.8 59 15.8 101990 42
2011-09-20 07:57 51°18.561 2°51.065 8 58 15.8 102000 42
2011-09-20 07:58 51°18.58 2°51.072 7.3 306 15.9 102000 42
2011-09-20 07:59 51°18.601 2°51.078 5.7 54 15.9 102010 42
2011-09-20 08:00 51°18.666 2°51.135 6.3 39 15.9 102000 43
2011-09-20 08:01 51°18.727 2°51.372 6.3 30 15.9 102000 40
2011-09-20 08:02 51°18.808 2°51.673 4.6 27 15.9 102000 42
2011-09-20 08:03 51°18.887 2°51.978 4.8 24 15.9 102000 42
2011-09-20 08:04 51°18.962 2°52.286 6.3 28 15.9 102010 41
2011-09-20 08:05 51°19.037 2°52.593 5.2 28 15.8 102000 42
2011-09-20 08:06 51°19.12 2°52.895 5.7 29 15.9 102000 41
2011-09-20 08:07 51°19.198 2°53.201 5.7 27 15.9 102010 42
2011-09-20 08:08 51°19.27 2°53.504 4.8 22 15.9 102010 42
2011-09-20 08:09 51°19.347 2°53.809 5.3 20 15.9 102010 41
2011-09-20 08:10 51°19.429 2°54.107 5.7 31 15.9 102000 42
2011-09-20 08:11 51°19.514 2°54.405 4.3 32 15.9 102010 42
2011-09-20 08:12 51°19.597 2°54.704 4.7 22 15.9 102020 41
2011-09-20 08:13 51°19.673 2°55.004 5.7 24 15.9 102010 41
2011-09-20 08:14 51°19.748 2°55.307 5.5 29 15.9 102020 42
2011-09-20 08:15 51°19.821 2°55.611 7 27 15.9 102020 42
2011-09-20 08:16 51°19.885 2°55.919 6.7 25 15.9 102020 42
2011-09-20 08:17 51°19.93 2°56.238 5.4 23 15.9 102020 41
2011-09-20 08:18 51°19.974 2°56.554 5.2 28 15.9 102020 42
2011-09-20 08:19 51°20.021 2°56.867 7 25 16 102020 41
2011-09-20 08:20 51°20.069 2°57.182 6.3 19 16 102030 41
2011-09-20 08:21 51°20.119 2°57.495 4.4 25 16 102030 41
2011-09-20 08:22 51°20.165 2°57.805 5.7 25 16 102030 41
2011-09-20 08:23 51°20.223 2°58.111 5.1 24 16 102040 42
2011-09-20 08:24 51°20.277 2°58.425 5.7 25 16 102030 41
2011-09-20 08:25 51°20.329 2°58.732 5.8 22 16 102030 41
2011-09-20 08:26 51°20.386 2°59.035 5.5 20 16 102040 41
2011-09-20 08:27 51°20.429 2°59.349 7.3 25 16 102030 41
2011-09-20 08:28 51°20.476 2°59.662 6.4 28 16 102040 42
2011-09-20 08:29 51°20.539 2°59.965 6 20 16 102040 42
2011-09-20 08:30 51°20.582 3°0.275 5.7 20 16 102040 42
2011-09-20 08:31 51°20.631 3°0.583 7.4 24 16.1 102030 42
2011-09-20 08:32 51°20.68 3°0.892 6.4 24 16 102040 40
2011-09-20 08:33 51°20.735 3°1.196 6 17 16.1 102030 40
2011-09-20 08:34 51°20.784 3°1.5 5.6 28 16.1 102030 42
2011-09-20 08:35 51°20.835 3°1.804 6.9 29 16 102040 42
2011-09-20 08:36 51°20.883 3°2.106 7.2 24 16.1 102030 41
2011-09-20 08:37 51°20.93 3°2.412 6.6 23 16 102030 40
2011-09-20 08:38 51°20.978 3°2.721 6.7 21 16.1 102040 41
2011-09-20 08:39 51°21.023 3°3.026 6.1 30 16.1 102030 40
2011-09-20 08:40 51°21.078 3°3.326 4.7 18 16.1 102040 41
2011-09-20 08:41 51°21.121 3°3.632 6.3 27 16.1 102040 40
2011-09-20 08:42 51°21.182 3°3.929 6.2 31 16.1 102050 41
2011-09-20 08:43 51°21.254 3°4.217 6.2 30 16.2 102040 41
2011-09-20 08:44 51°21.324 3°4.503 5.3 26 16.2 102050 41
2011-09-20 08:45 51°21.408 3°4.779 6 33 16.3 102040 41
2011-09-20 08:46 51°21.481 3°5.066 6.9 33 16.2 102050 42
2011-09-20 08:47 51°21.558 3°5.352 6.4 32 16.3 102040 42
2011-09-20 08:48 51°21.643 3°5.634 6.2 31 16.2 102040 41
2011-09-20 08:49 51°21.724 3°5.919 5.8 25 16.3 102040 39
2011-09-20 08:50 51°21.792 3°6.21 6.2 31 16.2 102040 41
2011-09-20 08:51 51°21.852 3°6.504 5.8 30 16.3 102040 41
2011-09-20 08:52 51°21.905 3°6.802 5.7 24 16.3 102040 41
2011-09-20 08:53 51°21.958 3°7.1 5.5 37 16.3 102040 41
2011-09-20 08:54 51°22.016 3°7.397 6.4 30 16.4 102050 40
2011-09-20 08:55 51°22.047 3°7.7 6.9 20 16.4 102040 40
2011-09-20 08:56 51°22.066 3°8.006 6.4 21 16.4 102050 40
2011-09-20 08:57 51°22.08 3°8.314 8.2 23 16.4 102040 40
2011-09-20 08:58 51°22.101 3°8.616 8.9 26 16.4 102050 41
2011-09-20 08:59 51°22.129 3°8.92 7.8 27 16.4 102040 40
2011-09-20 09:00 51°22.155 3°9.222 6 19 16.5 102050 41
2011-09-20 09:01 51°22.219 3°9.506 5.7 24 16.5 102050 40
2011-09-20 09:02 51°22.277 3°9.802 5.4 24 16.5 102050 41
2011-09-20 09:03 51°22.314 3°10.105 5.5 26 16.5 102060 41
2011-09-20 09:04 51°22.356 3°10.403 5.6 21 16.5 102060 40
2011-09-20 09:05 51°22.397 3°10.704 7.1 28 16.6 102060 40
2011-09-20 09:06 51°22.441 3°10.995 6.9 33 16.6 102050 41
2011-09-20 09:07 51°22.474 3°11.296 5 27 16.6 102060 41
2011-09-20 09:08 51°22.509 3°11.596 5.2 28 16.7 102050 41
2011-09-20 09:09 51°22.531 3°11.899 5.4 20 16.6 102050 40
2011-09-20 09:10 51°22.559 3°12.182 6.1 27 16.8 102050 41
2011-09-20 09:11 51°22.578 3°12.4 7 30 16.8 102050 41
2011-09-20 09:12 51°22.578 3°12.599 7.9 31 16.8 102040 40
2011-09-20 09:13 51°22.57 3°12.73 8.2 39 16.8 102040 39
2011-09-20 09:14 51°22.575 3°12.822 8.5 40 16.9 102050 41
2011-09-20 09:15 51°22.585 3°12.893 8.6 38 16.9 102040 40
2011-09-20 09:16 51°22.595 3°12.967 9.2 39 16.9 102040 40
2011-09-20 09:17 51°22.6 3°13.046 7.1 34 16.9 102040 40
2011-09-20 09:18 51°22.604 3°13.127 8.6 39 16.8 102040 40
2011-09-20 09:19 51°22.608 3°13.199 7.9 37 16.9 102050 40
2011-09-20 09:20 51°22.618 3°13.207 6.6 52 16.9 102050 40
2011-09-20 09:21 51°22.655 3°13.206 7.1 58 16.8 102070 39
2011-09-20 09:22 51°22.672 3°13.182 7.9 59 16.8 102080 41
2011-09-20 09:23 51°22.682 3°13.158 6.1 307 16.8 102070 40
2011-09-20 09:24 51°22.689 3°13.137 5.4 303 16.9 102070 41
2011-09-20 09:25 51°22.695 3°13.119 6.5 310 16.9 102080 41
2011-09-20 09:26 51°22.7 3°13.104 6.4 303 16.8 102090 40
2011-09-20 09:27 51°22.738 3°13.065 9.7 308 16.9 102090 41
2011-09-20 09:28 51°22.869 3°12.976 7 303 16.9 102080 40
2011-09-20 09:29 51°23.055 3°12.9 9.2 303 16.9 102080 39
2011-09-20 09:30 51°23.232 3°12.834 7.3 304 17 102090 41
2011-09-20 09:31 51°23.404 3°12.792 7 309 17 102090 40
2011-09-20 09:32 51°23.574 3°12.77 7.3 305 16.9 102080 40
2011-09-20 09:33 51°23.746 3°12.743 5.2 305 16.9 102100 40
2011-09-20 09:34 51°23.919 3°12.707 5.2 308 16.9 102080 40
2011-09-20 09:35 51°24.098 3°12.675 7.6 307 16.9 102080 41
2011-09-20 09:36 51°24.295 3°12.636 8.2 305 16.9 102080 41
2011-09-20 09:37 51°24.463 3°12.435 13.6 309 16.9 102070 39
2011-09-20 09:38 51°24.535 3°12.098 14.9 303 16.9 102070 41
2011-09-20 09:39 51°24.552 3°11.742 7.2 305 16.8 102060 41
2011-09-20 09:40 51°24.558 3°11.386 12.4 303 16.8 102060 41
2011-09-20 09:41 51°24.57 3°11.035 15.3 305 16.7 102060 41
2011-09-20 09:42 51°24.59 3°10.684 6.4 305 16.7 102060 41
2011-09-20 09:43 51°24.601 3°10.332 16.4 309 16.7 102050 41
2011-09-20 09:44 51°24.617 3°9.982 11.3 306 16.7 102060 41
2011-09-20 09:45 51°24.637 3°9.633 16.6 304 16.7 102060 40
2011-09-20 09:46 51°24.663 3°9.286 11.8 304 16.6 102060 42
2011-09-20 09:47 51°24.679 3°8.939 6.2 305 16.6 102050 41
2011-09-20 09:48 51°24.713 3°8.596 11.9 307 16.6 102050 41
2011-09-20 09:49 51°24.765 3°8.261 6 308 16.6 102050 41
2011-09-20 09:50 51°24.806 3°7.921 10.1 303 16.6 102060 41
2011-09-20 09:51 51°24.867 3°7.588 10 305 16.7 102060 41
2011-09-20 09:52 51°25.002 3°7.328 8.5 306 16.6 102080 42
2011-09-20 09:53 51°25.202 3°7.261 6 307 16.7 102070 39
2011-09-20 09:54 51°25.405 3°7.321 2.2 57 16.6 102070 41
2011-09-20 09:55 51°25.583 3°7.482 1.3 53 16.7 102060 41
2011-09-20 09:56 51°25.75 3°7.673 3.4 54 16.7 102060 42
2011-09-20 09:57 51°25.916 3°7.867 1.8 54 16.7 102060 42
2011-09-20 09:58 51°26.085 3°8.055 2.4 52 16.8 102060 41
2011-09-20 09:59 51°26.252 3°8.24 3.1 52 16.8 102060 42
2011-09-20 10:00 51°26.365 3°8.335 5 59 17 102050 42
2011-09-20 10:01 51°26.436 3°8.347 5.8 307 16.9 102050 38
2011-09-20 10:02 51°26.475 3°8.322 5.4 309 16.8 102070 40
2011-09-20 10:03 51°26.49 3°8.325 5.1 302 16.8 102080 41
2011-09-20 10:04 51°26.503 3°8.33 5.6 307 16.8 102060 41
2011-09-20 10:05 51°26.514 3°8.337 6.1 307 16.7 102060 41
2011-09-20 10:06 51°26.526 3°8.346 6.8 302 16.8 102060 44
2011-09-20 10:07 51°26.536 3°8.355 6.3 306 16.7 102070 41
2011-09-20 10:08 51°26.544 3°8.364 6.9 311 16.7 102060 42
2011-09-20 10:09 51°26.571 3°8.354 8.8 307 16.8 102060 41
2011-09-20 10:10 51°26.685 3°8.194 10.4 306 16.8 102050 42
2011-09-20 10:11 51°26.817 3°7.947 11 302 16.8 102060 42
2011-09-20 10:12 51°26.914 3°7.662 13.2 308 16.8 102060 42
2011-09-20 10:13 51°26.991 3°7.357 13.4 304 16.8 102060 41
2011-09-20 10:14 51°27.086 3°7.06 12.1 307 16.8 102060 41
2011-09-20 10:15 51°27.186 3°6.771 12.2 307 16.8 102050 42
2011-09-20 10:16 51°27.289 3°6.482 12.2 302 16.9 102050 42
2011-09-20 10:17 51°27.382 3°6.187 12.8 305 16.8 102050 41
2011-09-20 10:18 51°27.482 3°5.897 13.1 302 16.9 102050 42
2011-09-20 10:19 51°27.583 3°5.605 12.4 307 16.8 102070 42
2011-09-20 10:20 51°27.679 3°5.312 10.4 304 16.9 102050 42
2011-09-20 10:21 51°27.778 3°5.018 12.3 303 16.9 102050 43
2011-09-20 10:22 51°27.872 3°4.724 15.2 304 16.9 102070 42
2011-09-20 10:23 51°27.966 3°4.426 11.3 305 16.9 102050 42
2011-09-20 10:24 51°28.061 3°4.129 6.8 306 16.9 102060 43
2011-09-20 10:25 51°28.149 3°3.83 11.5 305 16.9 102060 40
2011-09-20 10:26 51°28.241 3°3.543 12.3 307 17 102040 43
2011-09-20 10:27 51°28.277 3°3.412 11.3 304 16.9 102050 42
2011-09-20 10:28 51°28.288 3°3.394 8.5 304 17 102080 42
2011-09-20 10:29 51°28.295 3°3.397 8.7 301 17 102080 42
2011-09-20 10:30 51°28.302 3°3.4 6.9 304 16.9 102070 42
2011-09-20 10:31 51°28.307 3°3.403 5.9 304 17 102070 42
2011-09-20 10:32 51°28.311 3°3.406 5.7 304 16.9 102070 43
2011-09-20 10:33 51°28.315 3°3.409 7.5 306 16.9 102060 42
2011-09-20 10:34 51°28.32 3°3.411 5.3 309 16.9 102060 43
2011-09-20 10:35 51°28.353 3°3.341 12.2 303 16.9 102070 42
2011-09-20 10:36 51°28.353 3°3.134 18 307 16.9 102040 43
2011-09-20 10:37 51°28.342 3°2.838 8 305 16.8 102050 42
2011-09-20 10:38 51°28.284 3°2.529 12.5 307 16.9 102030 43
2011-09-20 10:39 51°28.218 3°2.219 8.1 304 16.9 102040 42
2011-09-20 10:40 51°28.157 3°1.902 14.2 303 16.9 102050 42
2011-09-20 10:41 51°28.1 3°1.58 12.2 309 16.8 101990 41
2011-09-20 10:42 51°28.04 3°1.259 8.4 305 16.7 101990 42
2011-09-20 10:43 51°27.978 3°0.942 11.4 307 16.7 101980 43
2011-09-20 10:44 51°27.919 3°0.625 11.7 309 16.7 102020 42
2011-09-20 10:45 51°27.868 3°0.307 12.7 302 16.7 102030 42
2011-09-20 10:46 51°27.812 2°59.991 16.8 308 16.7 102020 42
2011-09-20 10:47 51°27.749 2°59.678 15.2 308 16.7 102020 42
2011-09-20 10:48 51°27.692 2°59.362 11.2 305 16.7 102020 42
2011-09-20 10:49 51°27.675 2°59.041 6.8 303 16.6 102050 41
2011-09-20 10:50 51°27.747 2°58.74 11.1 302 16.6 102050 42
2011-09-20 10:51 51°27.843 2°58.447 12.3 303 16.7 102030 42
2011-09-20 10:52 51°27.933 2°58.149 13 304 16.7 102050 43
2011-09-20 10:53 51°28.002 2°57.84 12.8 305 16.8 102060 43
2011-09-20 10:54 51°27.991 2°57.506 15.7 309 16.7 102020 42
2011-09-20 10:55 51°27.939 2°57.181 7.6 302 16.7 102040 42
2011-09-20 10:56 51°27.875 2°56.86 18.3 306 16.6 102030 42
2011-09-20 10:57 51°27.815 2°56.535 14.2 306 16.6 102020 41
2011-09-20 10:58 51°27.759 2°56.207 15.5 308 16.6 102030 42
2011-09-20 10:59 51°27.709 2°55.878 16.2 303 16.6 102020 41
2011-09-20 11:00 51°27.648 2°55.557 19.1 307 16.6 102040 42
2011-09-20 11:01 51°27.57 2°55.243 11.6 305 16.6 102020 43
2011-09-20 11:02 51°27.498 2°54.928 16.3 306 16.7 102030 42
2011-09-20 11:03 51°27.434 2°54.608 7.5 304 16.6 102030 42
2011-09-20 11:04 51°27.36 2°54.295 15.2 305 16.6 102020 42
2011-09-20 11:05 51°27.286 2°53.981 11.7 304 16.6 102030 41
2011-09-20 11:06 51°27.214 2°53.665 14.5 305 16.6 102030 43
2011-09-20 11:07 51°27.168 2°53.336 10.5 305 16.7 102030 43
2011-09-20 11:08 51°27.122 2°53.005 12.6 305 16.7 102020 42
2011-09-20 11:09 51°27.072 2°52.678 10.4 306 16.6 102030 43
2011-09-20 11:10 51°27.017 2°52.354 9.2 303 16.7 102020 43
2011-09-20 11:11 51°26.958 2°52.033 5.2 303 16.6 102030 42
2011-09-20 11:12 51°26.886 2°51.716 11.6 302 16.6 102010 42
2011-09-20 11:13 51°26.82 2°51.397 11.4 305 16.7 102030 41
2011-09-20 11:14 51°26.76 2°51.077 6.6 303 16.7 102020 42
2011-09-20 11:15 51°26.688 2°50.76 15.8 305 16.7 102020 42
2011-09-20 11:16 51°26.593 2°50.456 6.7 303 16.8 102020 42
2011-09-20 11:17 51°26.5 2°50.151 15.8 307 16.8 102020 43
2011-09-20 11:18 51°26.415 2°49.841 7.1 302 16.8 102020 43
2011-09-20 11:19 51°26.33 2°49.532 15.6 305 16.8 102010 42
2011-09-20 11:20 51°26.238 2°49.22 18.9 305 16.9 102010 43
2011-09-20 11:21 51°26.121 2°48.944 13.8 324 16.9 102020 41
2011-09-20 11:22 51°25.989 2°48.735 9.7 305 17 102020 43
2011-09-20 11:23 51°25.979 2°48.618 8.6 310 17 102030 43
2011-09-20 11:24 51°25.983 2°48.582 6.7 307 17 102020 42
2011-09-20 11:25 51°25.985 2°48.574 6.8 303 17 102050 43
2011-09-20 11:26 51°25.986 2°48.569 7.2 303 17 102040 42
2011-09-20 11:27 51°25.986 2°48.565 6.6 312 17.1 102040 42
2011-09-20 11:28 51°25.987 2°48.562 6.6 302 17.1 102040 42
2011-09-20 11:29 51°25.986 2°48.559 4.9 309 17.1 102050 40
2011-09-20 11:30 51°25.985 2°48.555 6.5 304 17 102040 43
2011-09-20 11:31 51°25.984 2°48.551 4.9 302 17.1 102040 43
2011-09-20 11:32 51°25.992 2°48.511 8.9 300 17.1 102040 42
2011-09-20 11:33 51°25.984 2°48.448 7.7 309 17.2 102030 42
2011-09-20 11:34 51°25.926 2°48.366 10.4 331 17.2 102020 43
2011-09-20 11:35 51°25.783 2°48.251 12.1 330 17.1 102010 43
2011-09-20 11:36 51°25.599 2°48.096 17 329 17.2 102010 42
2011-09-20 11:37 51°25.418 2°47.92 13.3 330 17.2 102010 41
2011-09-20 11:38 51°25.233 2°47.757 14.5 332 17.2 102000 42
2011-09-20 11:39 51°25.048 2°47.586 19.3 329 17.3 102010 43
2011-09-20 11:40 51°24.87 2°47.423 14.7 329 17.2 102020 43
2011-09-20 11:41 51°24.708 2°47.214 17.3 304 17.1 102020 43
2011-09-20 11:42 51°24.56 2°46.97 4.8 304 17.2 102010 43
2011-09-20 11:43 51°24.408 2°46.734 15.6 327 17.2 102020 42
2011-09-20 11:44 51°24.249 2°46.509 13.9 326 17.2 102010 42
2011-09-20 11:45 51°24.117 2°46.25 13.8 305 17.1 102020 41
2011-09-20 11:46 51°24.046 2°45.933 15.3 307 17.1 102010 43
2011-09-20 11:47 51°23.981 2°45.609 12.5 302 17 102020 42
2011-09-20 11:48 51°23.918 2°45.281 15.7 306 17 102030 42
2011-09-20 11:49 51°23.864 2°44.947 12.8 304 16.9 102020 42
2011-09-20 11:50 51°23.809 2°44.615 15.9 305 16.9 102030 42
2011-09-20 11:51 51°23.749 2°44.286 15.6 303 16.9 102030 42
2011-09-20 11:52 51°23.673 2°43.966 12.3 304 16.9 102030 42
2011-09-20 11:53 51°23.607 2°43.64 17.6 307 16.9 102030 41
2011-09-20 11:54 51°23.54 2°43.322 17.8 306 16.8 102030 42
2011-09-20 11:55 51°23.464 2°43.006 16.2 302 16.8 102020 42
2011-09-20 11:56 51°23.39 2°42.689 13.2 307 16.9 102020 42
2011-09-20 11:57 51°23.323 2°42.368 12 305 16.8 102020 42
2011-09-20 11:58 51°23.256 2°42.046 13 303 16.8 102020 42
2011-09-20 11:59 51°23.189 2°41.725 13.8 307 16.9 102020 42
2011-09-20 12:00 51°23.117 2°41.411 14.4 302 16.8 102020 42
2011-09-20 12:01 51°23.036 2°41.096 17.3 305 16.9 102010 41
2011-09-20 12:02 51°22.934 2°40.803 6.6 306 16.9 102020 42
2011-09-20 12:03 51°22.814 2°40.536 17.4 304 17 102020 42
2011-09-20 12:04 51°22.694 2°40.259 16.3 306 16.9 102010 42
2011-09-20 12:05 51°22.578 2°39.976 18.1 310 17 102010 42
2011-09-20 12:06 51°22.468 2°39.692 15.2 323 17.1 102020 42
2011-09-20 12:07 51°22.356 2°39.409 12.4 304 17 102010 42
2011-09-20 12:08 51°22.233 2°39.137 17.7 325 17.1 102010 42
2011-09-20 12:09 51°22.113 2°38.86 8.7 304 17.1 102010 41
2011-09-20 12:10 51°22.002 2°38.577 7.1 324 17.2 102010 42
2011-09-20 12:11 51°21.884 2°38.301 13.8 327 17.2 102010 42
2011-09-20 12:12 51°21.77 2°38.019 15.4 301 17.2 102020 42
2011-09-20 12:13 51°21.657 2°37.733 15.5 324 17.2 102020 42
2011-09-20 12:14 51°21.549 2°37.443 18.3 306 17.2 102020 42
2011-09-20 12:15 51°21.484 2°37.126 14.1 303 17.2 102010 42
2011-09-20 12:16 51°21.42 2°36.811 12 306 17.1 102020 43
2011-09-20 12:17 51°21.344 2°36.499 13.3 305 17.1 102010 41
2011-09-20 12:18 51°21.269 2°36.193 12.4 302 17.1 102030 43
2011-09-20 12:19 51°21.194 2°35.88 12.4 307 17 102020 43
2011-09-20 12:20 51°21.122 2°35.565 15.5 304 17 102020 42
2011-09-20 12:21 51°21.046 2°35.25 16.7 303 17 102030 43
2011-09-20 12:22 51°20.967 2°34.931 12 308 17 102020 42
2011-09-20 12:23 51°20.897 2°34.608 14.6 305 17 102000 43
2011-09-20 12:24 51°20.824 2°34.288 19.1 307 16.9 102020 43
2011-09-20 12:25 51°20.742 2°33.975 16.6 307 17 102010 41
2011-09-20 12:26 51°20.672 2°33.655 11 305 17 102010 43
2011-09-20 12:27 51°20.592 2°33.342 15.3 303 17 102010 43
2011-09-20 12:28 51°20.511 2°33.031 18.8 305 17 102010 43
2011-09-20 12:29 51°20.442 2°32.713 17.1 303 17 102010 43
2011-09-20 12:30 51°20.366 2°32.396 11.3 303 17 102030 43
2011-09-20 12:31 51°20.282 2°32.083 14.9 302 17 102020 42
2011-09-20 12:32 51°20.208 2°31.766 12 303 17 102020 43
2011-09-20 12:33 51°20.136 2°31.447 14.2 303 17.1 102010 42
2011-09-20 12:34 51°20.071 2°31.123 13.8 306 17 102020 43
2011-09-20 12:35 51°20.015 2°30.799 7.1 305 17.1 102020 43
2011-09-20 12:36 51°19.987 2°30.472 17.5 305 17.1 102020 43
2011-09-20 12:37 51°19.982 2°30.159 15.8 303 17 102030 43
2011-09-20 12:38 51°19.983 2°29.975 10.7 304 17 102020 43
2011-09-20 12:39 51°20.006 2°29.913 13.4 304 17 102040 43
2011-09-20 12:40 51°20.013 2°29.912 11.7 299 16.9 102090 43
2011-09-20 12:41 51°20.019 2°29.912 6.6 303 16.9 102050 41
2011-09-20 12:42 51°20.025 2°29.914 9.5 61 16.8 102060 43
2011-09-20 12:43 51°20.032 2°29.916 7.3 302 16.7 102070 42
2011-09-20 12:44 51°20.039 2°29.916 6.4 305 16.7 102050 43
2011-09-20 12:45 51°20.047 2°29.914 10.1 309 16.8 102060 42
2011-09-20 12:46 51°20.054 2°29.915 7.7 304 16.8 102050 43
2011-09-20 12:47 51°20.088 2°29.901 8.5 57 16.9 102040 43
2011-09-20 12:48 51°20.147 2°29.954 8.3 43 16.8 102030 43
2011-09-20 12:49 51°20.128 2°30.094 10.9 15 16.9 102000 42
2011-09-20 12:50 51°20.029 2°30.295 9.2 1 16.9 102010 43
2011-09-20 12:51 51°19.896 2°30.523 11 1 16.8 102000 43
2011-09-20 12:52 51°19.762 2°30.761 11.1 4 16.8 102010 44
2011-09-20 12:53 51°19.632 2°31.003 11.9 7 16.7 102000 43
2011-09-20 12:54 51°19.498 2°31.243 9.4 3 16.7 102010 43
2011-09-20 12:55 51°19.368 2°31.487 10 8 16.7 102020 43
2011-09-20 12:56 51°19.234 2°31.728 8.9 5 16.8 102010 43
2011-09-20 12:57 51°19.101 2°31.971 8.3 8 16.8 102010 42
2011-09-20 12:58 51°18.967 2°32.212 4.9 6 16.7 102000 43
2011-09-20 12:59 51°18.834 2°32.454 13.5 2 16.7 102010 43
2011-09-20 13:00 51°18.704 2°32.701 11.8 5 16.7 102010 43
2011-09-20 13:01 51°18.573 2°32.95 8.4 5 16.7 102010 43
2011-09-20 13:02 51°18.446 2°33.203 14.5 8 16.7 102010 43
2011-09-20 13:03 51°18.317 2°33.453 10.4 5 16.7 102010 43
2011-09-20 13:04 51°18.186 2°33.698 13.3 6 16.7 102010 43
2011-09-20 13:05 51°18.059 2°33.948 10.5 5 16.7 102010 42
2011-09-20 13:06 51°17.93 2°34.192 9.6 3 16.6 102010 43
2011-09-20 13:07 51°17.8 2°34.439 9.9 2 16.7 102010 43
2011-09-20 13:08 51°17.672 2°34.686 7.9 4 16.7 102020 43
2011-09-20 13:09 51°17.546 2°34.934 12.4 358 16.6 102020 43
2011-09-20 13:10 51°17.417 2°35.181 13.4 2 16.6 102020 44
2011-09-20 13:11 51°17.291 2°35.433 12.7 2 16.5 102020 43
2011-09-20 13:12 51°17.161 2°35.683 11.5 360 16.5 102020 43
2011-09-20 13:13 51°17.031 2°35.935 9.3 4 16.4 102020 42
2011-09-20 13:14 51°16.897 2°36.184 9.1 3 16.4 102030 43
2011-09-20 13:15 51°16.762 2°36.428 15.1 1 16.4 102020 43
2011-09-20 13:16 51°16.62 2°36.625 13.8 1 16.4 102020 43
2011-09-20 13:17 51°16.54 2°36.76 7.2 32 16.4 102030 43
2011-09-20 13:18 51°16.56 2°36.838 8.3 53 16.4 102040 44
2011-09-20 13:19 51°16.596 2°36.836 6.1 301 16.4 102070 44
2011-09-20 13:20 51°16.6 2°36.83 11 303 16.4 102060 43
2011-09-20 13:21 51°16.602 2°36.832 9.5 306 16.4 102060 42
2011-09-20 13:22 51°16.602 2°36.838 10.5 305 16.4 102070 44
2011-09-20 13:23 51°16.601 2°36.846 6.3 302 16.4 102060 44
2011-09-20 13:24 51°16.599 2°36.853 5.9 301 16.4 102070 44
2011-09-20 13:25 51°16.61 2°36.844 9.3 303 16.4 102050 44
2011-09-20 13:26 51°16.612 2°36.772 4.4 308 16.4 102030 43
2011-09-20 13:27 51°16.556 2°36.725 13.7 349 16.4 102020 43
2011-09-20 13:28 51°16.421 2°36.719 18 339 16.3 102010 43
2011-09-20 13:29 51°16.344 2°36.65 11.1 304 16.3 102030 42
2011-09-20 13:30 51°16.315 2°36.534 9.1 308 16.2 102030 44
2011-09-20 13:31 51°16.265 2°36.403 10.5 306 16.2 102020 44
2011-09-20 13:32 51°16.224 2°36.286 10 303 16.2 102020 44
2011-09-20 13:33 51°16.186 2°36.18 13.5 305 16.1 102020 44
2011-09-20 13:34 51°16.153 2°36.079 13.6 308 16.2 102010 43
2011-09-20 13:35 51°16.122 2°35.97 10.4 308 16.2 102020 43
2011-09-20 13:36 51°16.085 2°35.857 13.7 307 16.2 102020 44
2011-09-20 13:37 51°16.037 2°35.734 11.9 302 16.2 102010 42
2011-09-20 13:38 51°15.906 2°35.613 10.7 339 16.2 102000 44
2011-09-20 13:39 51°15.723 2°35.675 13.1 350 16.2 101990 43
2011-09-20 13:40 51°15.536 2°35.813 10.3 351 16.2 101990 43
2011-09-20 13:41 51°15.349 2°35.948 10.8 345 16.3 102000 43
2011-09-20 13:42 51°15.161 2°36.085 17.6 352 16.3 102000 43
2011-09-20 13:43 51°14.974 2°36.221 11.2 349 16.4 102000 43
2011-09-20 13:44 51°14.791 2°36.367 12.9 349 16.4 102000 43
2011-09-20 13:45 51°14.609 2°36.509 6 347 16.5 102000 42
2011-09-20 13:46 51°14.423 2°36.645 11.8 347 16.5 102010 42
2011-09-20 13:47 51°14.237 2°36.781 11.6 350 16.4 102000 43
2011-09-20 13:48 51°14.056 2°36.929 14.5 348 16.3 101990 43
2011-09-20 13:49 51°13.871 2°37.067 17.1 349 16.3 102000 43
2011-09-20 13:50 51°13.685 2°37.2 6.7 350 16.3 102000 43
2011-09-20 13:51 51°13.495 2°37.306 6.8 340 16.3 102000 43
2011-09-20 13:52 51°13.295 2°37.352 17.4 339 16.4 102000 43
2011-09-20 13:53 51°13.092 2°37.379 12.7 336 16.4 102020 42
2011-09-20 13:54 51°12.892 2°37.359 15.7 332 16.4 102020 44
2011-09-20 13:55 51°12.696 2°37.284 6.8 331 16.3 102020 43
2011-09-20 13:56 51°12.504 2°37.193 18 331 16.3 102010 44
2011-09-20 13:57 51°12.31 2°37.107 14.5 336 16.2 102020 43
2011-09-20 13:58 51°12.113 2°37.035 17.6 334 16.2 102010 43
2011-09-20 13:59 51°11.917 2°36.965 6.8 334 16.2 102020 43
2011-09-20 14:00 51°11.725 2°36.88 11.8 331 16.3 102020 43
2011-09-20 14:01 51°11.531 2°36.791 6.5 332 16.3 102020 42
2011-09-20 14:02 51°11.339 2°36.699 13.8 333 16.3 102020 43
2011-09-20 14:03 51°11.143 2°36.627 4.4 332 16.3 102020 42
2011-09-20 14:04 51°10.95 2°36.537 14.1 331 16.3 102020 43
2011-09-20 14:05 51°10.754 2°36.472 6.4 334 16.4 102020 43
2011-09-20 14:06 51°10.56 2°36.396 6.3 335 16.3 102030 43
2011-09-20 14:07 51°10.36 2°36.394 10.8 340 16.3 102030 43
2011-09-20 14:08 51°10.196 2°36.561 13.1 353 16.3 102020 43
2011-09-20 14:09 51°10.176 2°36.888 6.7 4 16.3 102020 42
2011-09-20 14:10 51°10.23 2°37.224 5.5 9 16.2 102040 42
2011-09-20 14:11 51°10.292 2°37.554 4.9 3 16.2 102030 43
2011-09-20 14:12 51°10.346 2°37.887 5.8 4 16.2 102030 44
2011-09-20 14:13 51°10.391 2°38.224 5.7 2 16.2 102030 44
2011-09-20 14:14 51°10.426 2°38.563 5.8 -999 16.2 102030 43
2011-09-20 14:15 51°10.468 2°38.896 6.3 8 16.2 102030 43
2011-09-20 14:16 51°10.522 2°39.226 5.8 5 16.1 102030 43
2011-09-20 14:17 51°10.567 2°39.559 5.4 4 16.1 102030 42
2011-09-20 14:18 51°10.601 2°39.894 6.7 4 16.1 102030 44
2011-09-20 14:19 51°10.644 2°40.226 5.4 3 16 102030 43
2011-09-20 14:20 51°10.687 2°40.562 6 4 16 102030 43
2011-09-20 14:21 51°10.732 2°40.897 5.9 6 16 102030 42
2011-09-20 14:22 51°10.779 2°41.235 5.5 6 15.9 102030 43
2011-09-20 14:23 51°10.826 2°41.572 7.6 11 16 102030 43
2011-09-20 14:24 51°10.854 2°41.814 5.3 20 15.9 102030 44
2011-09-20 14:25 51°10.899 2°41.987 4.7 40 16 102030 41
2011-09-20 14:26 51°10.984 2°42.044 4.5 59 16 102040 44
2011-09-20 14:27 51°11.075 2°42.044 3.8 301 16 102040 42
2011-09-20 14:28 51°11.107 2°42.044 6.5 304 16.1 102040 44
2011-09-20 14:29 51°11.12 2°42.064 7.7 308 16.1 102050 43
2011-09-20 14:30 51°11.132 2°42.09 6.1 302 16.2 102040 43
2011-09-20 14:31 51°11.144 2°42.121 4.3 306 16.2 102040 42
2011-09-20 14:32 51°11.156 2°42.154 6.5 307 16.2 102040 43
2011-09-20 14:33 51°11.176 2°42.176 4.3 53 16.2 102030 42
2011-09-20 14:34 51°11.246 2°42.244 -999 36 16.3 102030 44
2011-09-20 14:35 51°11.364 2°42.478 4.1 16 16.3 102030 42
2011-09-20 14:36 51°11.445 2°42.801 6.3 8 16.3 102020 43
2011-09-20 14:37 51°11.493 2°43.146 4.9 6 16.2 102030 43
2011-09-20 14:38 51°11.55 2°43.49 5.9 11 16.2 102020 43
2011-09-20 14:39 51°11.597 2°43.837 5.6 3 16.2 102020 44
2011-09-20 14:40 51°11.618 2°44.191 7.4 359 16.3 102020 42
2011-09-20 14:41 51°11.655 2°44.544 5.9 358 16.2 102020 42
2011-09-20 14:42 51°11.698 2°44.896 6.3 359 16.2 102020 42
2011-09-20 14:43 51°11.751 2°45.244 7.3 1 16.3 102010 43
2011-09-20 14:44 51°11.795 2°45.595 7 4 16.2 102010 43
2011-09-20 14:45 51°11.856 2°45.94 6.8 8 16.2 102010 42
2011-09-20 14:46 51°11.912 2°46.284 6.3 12 16.2 102010 43
2011-09-20 14:47 51°12 2°46.613 6.1 9 16.2 102020 44
2011-09-20 14:48 51°12.091 2°46.941 5.7 15 16.2 102010 43
2011-09-20 14:49 51°12.177 2°47.273 6.1 16 16.2 102010 42
2011-09-20 14:50 51°12.251 2°47.613 5.2 14 16.2 102010 42
2011-09-20 14:51 51°12.339 2°47.943 5.6 13 16.2 102020 42
2011-09-20 14:52 51°12.435 2°48.268 5.2 12 16.2 102020 43
2011-09-20 14:53 51°12.517 2°48.602 6.6 12 16.2 102020 43
2011-09-20 14:54 51°12.611 2°48.931 4.6 17 16.2 102020 43
2011-09-20 14:55 51°12.709 2°49.256 5.2 14 16.2 102020 44
2011-09-20 14:56 51°12.8 2°49.587 5.3 10 16.2 102020 43
2011-09-20 14:57 51°12.915 2°49.899 4 11 16.2 102020 42
2011-09-20 14:58 51°13.034 2°50.208 4.8 20 16.2 102020 43
2011-09-20 14:59 51°13.14 2°50.526 5.6 17 16.2 102020 42
2011-09-20 15:00 51°13.246 2°50.845 5 16 16.2 102020 42
2011-09-20 15:01 51°13.361 2°51.157 2 5 16.2 102030 42
2011-09-20 15:02 51°13.474 2°51.471 4 7 16.3 102020 44
2011-09-20 15:03 51°13.574 2°51.796 4.7 9 16.3 102020 42
2011-09-20 15:04 51°13.673 2°52.117 3.6 15 16.3 102010 43
2011-09-20 15:05 51°13.776 2°52.44 5.1 12 16.3 102020 44
2011-09-20 15:06 51°13.878 2°52.764 3.8 14 16.3 102020 43
2011-09-20 15:07 51°14.001 2°53.07 3.1 16 16.3 102020 42
2011-09-20 15:08 51°14.132 2°53.369 4.1 9 16.3 102020 42
2011-09-20 15:09 51°14.258 2°53.672 3.9 5 16.3 102010 43
2011-09-20 15:10 51°14.377 2°53.951 3.9 21 16.3 102010 43
2011-09-20 15:11 51°14.466 2°54.177 4.4 39 16.3 102020 44
2011-09-20 15:12 51°14.514 2°54.326 5 26 16.3 102020 42
2011-09-20 15:13 51°14.55 2°54.437 5.3 32 16.4 102010 43
2011-09-20 15:14 51°14.602 2°54.529 4.8 53 16.3 102010 42
2011-09-20 15:15 51°14.688 2°54.537 4.3 301 16.4 102020 43
2011-09-20 15:16 51°14.775 2°54.49 6.8 302 16.4 102020 43
2011-09-20 15:17 51°14.853 2°54.431 7.7 303 16.4 102020 43
2011-09-20 15:18 51°14.925 2°54.334 6.4 307 16.4 102010 43
2011-09-20 15:19 51°15.02 2°54.364 4.7 36 16.5 102010 42
2011-09-20 15:20 51°15.031 2°54.497 6.3 1 16.5 102000 43
2011-09-20 15:21 51°14.981 2°54.605 7.4 353 16.5 101990 43
2011-09-20 15:22 51°14.938 2°54.686 8.7 348 16.5 102000 43
2011-09-20 15:23 51°14.846 2°54.803 9.3 346 16.4 101980 42
2011-09-20 15:24 51°14.715 2°54.94 10.2 344 16.4 101990 43
2011-09-20 15:25 51°14.558 2°55.067 11.9 341 16.4 101980 42
2011-09-20 15:26 51°14.39 2°55.19 11.4 353 16.5 101980 43
2011-09-20 15:27 51°14.225 2°55.335 7.7 339 16.5 101990 42
2011-09-20 15:28 51°14.101 2°55.43 8.3 283 16.6 102000 42
2011-09-20 15:29 51°13.997 2°55.506 9.8 343 16.6 102000 42
2011-09-20 15:30 51°13.901 2°55.574 4.8 347 16.6 102000 41
2011-09-20 15:31 51°13.814 2°55.637 5.5 351 16.7 102000 42
2011-09-20 15:32 51°13.746 2°55.729 4.8 351 16.7 102000 43
2011-09-20 15:33 51°13.692 2°55.837 4.7 351 16.7 102000 41
2011-09-20 15:34 51°13.657 2°55.923 2.8 356 16.7 102010 43
2011-09-20 15:35 51°13.642 2°55.992 3.9 358 16.7 102010 42